Location: Davidschlag
(48.4333°N, 14.2833°E)
Time: 18:37:28
(UTC+00:00)

CZ-2C R/B - Pass Details

Date: 27 February 2020
Orbit: 784 x 871 km, 98.3° (Epoch: 28 March)

Event Time Altitude Azimuth Distance (km) Brightness Sun altitude
Rises 18:53:08 0° 19° (NNE) 3,432 5.8 -22.3°
Reaches altitude 10° 18:55:42 10° 28° (NNE) 2,479 5.0 -22.7°
Enters shadow 18:57:08 17° 36° (NE) 1,992 4.4 -22.9°
